星链-6068 (STARLINK-6068 )

导读 | 星芒AI

STARLINK-6068 是埃隆·马斯克旗下 SpaceX 公司“星链”(Starlink)计划中的一颗低轨通信卫星。该卫星属于星链项目第6组(v6)卫星群,于2023年发射,旨在为全球用户提供高速互联网服务。它运行在约550公里高度的近地轨道,配备先进通信设备,支持Ka/Ku波段数据传输。星链计划最终目标是部署数万颗卫星,构建覆盖全球的宽带网络,尤其服务于偏远地区。STARLINK-6068 的发射和运行有助于提升星链网络的覆盖密度与服务质量。

基本信息
目录编号:
56798
目录名称:
STARLINK-6068
国际标识:
2023-078AH
轨道中心:
EARTH
卫星名称:
星链-6068
卫星全名:
星链-6068 (STARLINK-6068 )
卫星状态:
已陨落 最后检测时间 2025-05-14
发射日期:
2023-05-31 UTC
国别 :
美国 (US)
星等 :
--
轨道信息
数据来源 国际轨道数据
星历时间: 2025-05-14T10:59:22+0800
轨道信息已过期174天
半长轴: 6528.84km
偏心率: 0.0014618
轨道倾角: 69.975°
近地点辐角 275.407°
升交点赤经 343.626°
平近点角 224.167°
近地点: 141.161km
远地点: 160.249km
周期: 87.501分钟
每日圈数: 16.45693
详细信息
固有亮度:
5
最大亮度:
2.5
卫星平台:
Starlink v1.5
覆盖范围:
全球
运营商:
太空探索技术公司
运营商所在国:
美国
制造商(研发单位):
太空探索技术公司
制造商所在国:
美国
使用方式:
暂无
卫星简介
星链(Starlink)计划是由太空探索技术公司(SpaceX)提出的一个巨型低轨卫星互联网星座项目,计划在2019年至2024年间在太空搭建由约1.2万颗卫星组成的“星链”网络,其中1584颗将部署在地球上空550千米处的近地轨道,并从2020年开始工作。该卫星仍在工作。